Location: Be?chatów
(51.3665°N, 19.3745°E)
Time: 07:02:51
(UTC+00:00)

BREEZE-M DEB (TANK) - Pass Details

Date: 19 May 2025
Orbit: 281 x 12174 km, 49.5° (Epoch: 16 June)

Event Time Altitude Azimuth Distance (km) Brightness Sun altitude
Rises 20:37:26 0° 272° (W) 10,320 9.2 -13.9°
Reaches altitude 10° 20:47:28 10° 273° (W) 7,171 8.3 -14.6°
Maximum altitude 21:03:50 76° 193° (SSW) 1,245 3.9 -15.7°
Enters shadow 21:07:53 13° 108° (ESE) 1,956 4.7 -15.9°
